[[{"header":{"parameterUnit":"m.s-1","parameterCategory":1,"la1":30.2991,"la2":30.254,"lo1":-89.0895,"lo2":-89.0444,"dy":0.0017,"dx":0.0017,"nx":28,"ny":28,"refTime":"2025-08-01T21:00:00:Z","depth":0,"parameterNumber":2,"parameterNumberName":"U-component_of_WINDS"},"data":[0,0,0,0,0,0,0,0,0,0,0,0,0,0,0,0,0,0,0,0,0,0,0,0,0,0,0,0,0,0,0,0,0,0,0,0,0,0,0,0,0,0,0,0,0,0,0,0,0,0,0,0,0,0,0,0,0,0,2.6827,2.6828,0,2.6922,2.6923,2.6924,2.689,2.6888,2.6886,2.6884,2.6979,2.6983,2.6988,0,0,0,0,0,0,0,0,0,0,0,0,0,2.6613,2.6617,2.6827,2.6828,2.6829,2.6922,2.6923,2.6924,2.689,2.6888,2.6885,2.6883,2.6977,2.6983,2.6988,0,0,0,0,0,0,0,0,0,0,0,0,0,2.6707,2.6619,2.6827,2.6824,2.6824,2.6921,2.6923,2.6925,2.6891,2.6888,2.6884,2.6881,2.6976,2.6982,2.6989,2.7094,0,0,2.701,2.7013,0,0,0,0,0,0,0,0,2.6701,2.6715,2.6823,2.6824,2.6825,2.6891,2.6882,2.6981,2.6892,2.6866,2.6884,2.688,2.6952,2.6961,2.6985,2.7099,2.7103,2.701,2.7014,2.7017,2.7019,0,0,0,0,0,0,0,2.6695,2.671,2.6864,2.6825,2.6826,2.6816,2.6826,2.6901,2.6925,2.6868,2.6865,2.6877,2.6952,2.6979,2.6987,2.7104,2.701,2.7016,2.702,2.7023,2.7307,2.731,0,0,0,0,0,0,2.6688,2.6705,2.6861,2.6867,2.6754,2.6823,2.6834,2.6873,2.6925,2.6929,2.688,2.6875,2.6969,2.6979,2.699,2.7116,2.7017,2.7023,2.7027,2.7303,2.7307,2.7311,0,0,0,0,0,0,2.6684,2.6703,2.6858,2.6786,2.6805,2.683,2.6874,2.6876,2.6903,2.6934,2.6938,2.6903,2.6967,2.6981,2.7068,2.7119,2.7027,2.7033,2.7299,2.7304,2.7309,2.7369,0,0,0,0,0,0,2.6678,2.6701,2.6743,2.6787,2.6809,2.6935,2.6877,2.6881,2.6915,2.691,2.6957,2.6961,2.6965,2.7058,2.7075,2.7127,2.7038,2.7295,2.7301,2.7308,2.7362,2.7375,2.7386,0,0,0,0,0,2.667,2.6756,2.6745,2.6764,2.6861,2.6938,2.6951,2.6954,2.692,2.696,2.698,2.696,2.7111,2.7068,2.7086,2.714,2.7291,2.7299,2.7307,2.7357,2.7373,2.7386,0,0,0,0,0,0,2.6716,2.6761,2.675,2.6852,2.6892,2.6932,2.6984,2.6971,2.7021,2.7014,2.7016,2.7026,2.7116,2.7137,2.7088,2.7244,2.7196,2.7208,2.7227,2.7243,2.7254,2.7247,2.7044,0,0,0,0,0,2.6738,2.6798,2.6834,2.6921,2.6941,2.6959,2.6993,2.6993,2.7033,2.705,2.7075,2.7115,2.7171,2.7208,2.7261,2.7365,2.7374,2.7411,2.7423,2.7433,2.7443,2.7498,2.7514,2.7337,2.7337,2.7337,0,0,2.6784,2.6816,2.6854,2.6931,2.6961,2.7022,2.6974,2.7041,2.7085,2.7059,2.7144,2.7164,2.7207,2.7303,2.7347,2.7323,2.7494,2.7443,2.745,2.7455,2.7507,2.7524,2.7539,2.7342,2.7341,2.734,0,0,2.6899,2.693,2.7005,2.7037,2.7083,2.7095,2.7113,2.7155,2.7168,2.7252,2.7233,2.7286,2.7383,2.7414,2.7443,2.7568,2.7551,2.7585,2.7648,2.7702,2.7716,2.7728,2.7771,2.7787,2.7595,2.7596,2.7596,0,2.6951,2.7043,2.7045,2.7114,2.7147,2.7126,2.7201,2.7231,2.7293,2.7316,2.7289,2.7409,2.7437,2.7539,2.7569,2.7594,2.7613,2.758,2.7713,2.7726,2.7737,2.7779,2.7795,2.7599,2.7599,2.7599,2.7598,0,2.7103,2.7167,2.7221,2.7282,2.7321,2.7393,2.7404,2.7444,2.7439,2.7453,2.7538,2.757,2.7629,2.7653,2.765,2.7754,2.7738,2.7713,2.7664,2.7758,2.7797,2.7813,2.7605,2.7604,2.7602,2.7601,0,0,2.7251,2.731,2.733,2.7357,2.7406,2.7455,2.7524,2.7582,2.7615,2.7658,2.7715,2.7797,2.7772,2.7805,2.7804,2.7851,2.7946,2.7819,2.782,2.7841,2.8062,2.8081,2.8099,2.7935,2.7938,2.794,2.8058,0,2.7369,2.7492,2.7495,2.7607,2.7665,2.7646,2.7706,2.7742,2.7756,2.7806,2.7821,2.7878,2.7843,2.7862,2.7907,2.7925,2.799,2.7917,2.7987,2.7989,2.7976,2.812,2.814,2.825,2.8073,2.8076,2.8077,0,2.7524,2.7572,2.769,2.7729,2.7754,2.7808,2.786,2.7909,2.7948,2.7955,2.7991,2.7982,2.8051,2.8,2.8094,2.8044,2.8073,2.8085,2.809,2.8096,2.8039,2.8129,2.8285,2.8301,2.8102,2.81,2.8098,0,2.7619,2.7712,2.7795,2.7818,2.7866,2.7905,2.7926,2.7963,2.7997,2.8042,2.8063,2.8116,2.8145,2.8185,2.819,2.8153,2.8284,2.8234,2.8291,2.8291,2.8319,2.8318,2.8481,2.8339,2.8338,2.8338,2.8338,0,2.7751,2.7823,2.7838,2.7889,2.7969,2.7971,2.805,2.8068,2.81,2.8153,2.8138,2.8188,2.8192,2.8242,2.8247,2.8323,2.8336,2.8342,2.8343,2.8344,2.8343,2.8362,2.8355,2.8342,2.8342,2.8341,2.834,0,2.787,2.7883,2.7972,2.801,2.8021,2.8078,2.811,2.8157,2.8169,2.8236,2.8251,2.827,2.8328,2.8337,2.8406,2.8409,2.85,2.8492,2.8487,2.8486,2.8541,2.8536,2.8723,2.8747,2.8589,2.8591,2.8592,0,2.7954,2.8009,2.8053,2.8088,2.8112,2.8167,2.8202,2.8205,2.8242,2.829,2.8331,2.8388,2.8433,2.8527,2.8545,2.8597,2.859,2.8652,2.8598,2.8597,2.859,2.8587,2.8591,2.8663,2.8665,2.8666,2.8667,0,2.81,2.8103,2.8154,2.8207,2.8249,2.829,2.833,2.8358,2.8366,2.8407,2.8467,2.8502,2.8572,2.8628,2.8678,2.8699,2.8684,2.8684,2.8699,2.8701,2.8695,2.8698,2.8515,2.868,2.8678,2.8677,2.8677,2.8676,2.8203,2.8251,2.8289,2.8346,2.8376,2.8412,2.8459,2.8476,2.8526,2.8583,2.8582,2.8647,2.8682,2.8749,2.8773,2.8822,2.8802,2.8825,2.8831,2.8836,2.8841,2.8687,2.8832,2.8831,2.8831,2.8831,2.8831,0,2.8348,2.8371,2.8423,2.8479,2.8523,2.8505,2.8547,2.8585,2.8643,2.8678,2.8723,2.879,2.8843,2.8866,2.8918,2.8953,2.8948,2.8967,2.8964,2.8969,2.8857,2.8838,2.897,2.897,2.897,2.897,2.897,2.897,2.8428,2.8508,2.8515,2.8609,2.8631,2.8695,2.872,2.8753,2.8781,2.8857,2.8902,2.8916,2.8945,2.8999,2.9047,2.9052,2.9071,2.9094,2.9095,2.8991,2.8977,2.8963,2.8945,2.9098,2.9098,2.9203,2.9204,2.9204]},{"header":{"parameterUnit":"m.s-1","parameterCategory":1,"la1":30.2991,"la2":30.254,"lo1":-89.0895,"lo2":-89.0444,"dy":0.0017,"dx":0.0017,"nx":28,"ny":28,"refTime":"2025-08-01T21:00:00:Z","depth":0,"parameterNumber":3,"parameterNumberName":"V-component_of_WINDS"},"data":[0,0,0,0,0,0,0,0,0,0,0,0,0,0,0,0,0,0,0,0,0,0,0,0,0,0,0,0,0,0,0,0,0,0,0,0,0,0,0,0,0,0,0,0,0,0,0,0,0,0,0,0,0,0,0,0,0,0,5.4905,5.4905,0,5.4969,5.497,5.4971,5.494,5.4938,5.4937,5.4935,5.4993,5.4996,5.4999,0,0,0,0,0,0,0,0,0,0,0,0,0,5.4745,5.4748,5.4904,5.4905,5.4906,5.4969,5.497,5.4971,5.494,5.4938,5.4936,5.4935,5.4992,5.4995,5.4999,0,0,0,0,0,0,0,0,0,0,0,0,0,5.4812,5.4749,5.4904,5.4899,5.4899,5.4969,5.497,5.4971,5.4941,5.4938,5.4936,5.4934,5.4991,5.4995,5.4999,5.5076,0,0,5.5013,5.5015,0,0,0,0,0,0,0,0,5.4808,5.4818,5.4899,5.4899,5.4899,5.4944,5.4935,5.5006,5.4941,5.4925,5.4935,5.4932,5.4978,5.4983,5.5001,5.5079,5.5081,5.5014,5.5017,5.5019,5.502,0,0,0,0,0,0,0,5.4804,5.4815,5.493,5.49,5.49,5.489,5.4897,5.4948,5.4964,5.4926,5.4924,5.4932,5.4978,5.4996,5.5002,5.5082,5.5014,5.5018,5.5021,5.5022,5.5225,5.5227,0,0,0,0,0,0,5.4801,5.4811,5.4928,5.4932,5.4847,5.4895,5.4902,5.4932,5.4963,5.4966,5.4934,5.4931,5.499,5.4996,5.5004,5.5094,5.5019,5.5023,5.5025,5.5222,5.5225,5.5228,0,0,0,0,0,0,5.4797,5.4811,5.4925,5.4871,5.4885,5.49,5.4934,5.4935,5.4953,5.497,5.4971,5.4951,5.4988,5.4997,5.5059,5.5096,5.5025,5.5029,5.5219,5.5223,5.5227,5.5277,0,0,0,0,0,0,5.4793,5.481,5.4842,5.4872,5.4888,5.4982,5.4936,5.4938,5.4962,5.4958,5.4986,5.4988,5.4987,5.5052,5.5063,5.5101,5.5033,5.5216,5.5221,5.5226,5.5272,5.5282,5.5291,0,0,0,0,0,5.4787,5.4852,5.4844,5.4858,5.4928,5.4984,5.4993,5.4993,5.4966,5.4996,5.5006,5.4987,5.5091,5.5059,5.5071,5.511,5.5213,5.5219,5.5225,5.5268,5.528,5.529,0,0,0,0,0,0,5.4821,5.4855,5.4847,5.4924,5.4952,5.4979,5.5017,5.5006,5.504,5.5034,5.5029,5.5036,5.5099,5.5111,5.5075,5.5185,5.5147,5.5156,5.5175,5.5187,5.5197,5.5191,5.5036,0,0,0,0,0,5.4839,5.4885,5.491,5.4975,5.499,5.5002,5.5026,5.5024,5.5051,5.5062,5.5077,5.5102,5.5139,5.5164,5.52,5.5274,5.5278,5.5307,5.5317,5.5324,5.5331,5.5369,5.5382,5.5248,5.5248,5.5248,0,0,5.4873,5.4897,5.4926,5.4983,5.5004,5.5049,5.5011,5.506,5.5092,5.5068,5.5127,5.5139,5.5167,5.5235,5.5265,5.5246,5.5369,5.5332,5.5338,5.534,5.5376,5.5389,5.54,5.5252,5.5251,5.525,0,0,5.4959,5.4983,5.5039,5.5062,5.5096,5.5104,5.5117,5.5147,5.5154,5.5215,5.5197,5.5234,5.53,5.532,5.5338,5.5432,5.5415,5.5444,5.5492,5.5529,5.554,5.5549,5.558,5.5592,5.5451,5.5451,5.5451,0,5.4996,5.5066,5.5069,5.5119,5.5144,5.5128,5.5183,5.5204,5.5246,5.5262,5.5242,5.5324,5.5341,5.5412,5.5436,5.5452,5.5465,5.5439,5.5539,5.5548,5.5556,5.5586,5.5598,5.5454,5.5454,5.5454,5.5453,0,5.5109,5.5157,5.5198,5.5243,5.5272,5.5325,5.5333,5.5361,5.5357,5.5365,5.5425,5.5446,5.5485,5.5503,5.5497,5.5573,5.556,5.5539,5.55,5.5572,5.56,5.5611,5.5459,5.5458,5.5457,5.5456,0,0,5.5215,5.5263,5.5278,5.5298,5.5335,5.537,5.5421,5.5463,5.5486,5.5516,5.5557,5.5614,5.5595,5.5616,5.5613,5.5646,5.5716,5.5621,5.5621,5.5636,5.5798,5.5812,5.5825,5.5706,5.5709,5.571,5.5795,0,5.5302,5.5395,5.5399,5.5481,5.5524,5.551,5.5554,5.558,5.5589,5.5625,5.5634,5.5673,5.5647,5.5659,5.5692,5.5701,5.5748,5.5695,5.5741,5.5742,5.5732,5.584,5.5855,5.5934,5.5806,5.5808,5.5809,0,5.5415,5.5452,5.554,5.557,5.5588,5.5628,5.5666,5.5701,5.5729,5.5733,5.5758,5.5751,5.5799,5.5761,5.5827,5.579,5.5809,5.5817,5.582,5.5822,5.5778,5.5843,5.5959,5.597,5.5827,5.5825,5.5824,0,5.5481,5.5552,5.5614,5.5632,5.5669,5.5697,5.5714,5.574,5.5764,5.5797,5.5812,5.5849,5.5868,5.5895,5.5896,5.5869,5.5962,5.5924,5.5964,5.5964,5.5982,5.598,5.6101,5.5998,5.5998,5.5998,5.5998,0,5.5575,5.5629,5.5644,5.5682,5.5741,5.5744,5.5802,5.5815,5.5839,5.5876,5.5866,5.5901,5.5902,5.5937,5.5938,5.5991,5.6,5.6002,5.6002,5.6002,5.6002,5.6012,5.6006,5.6001,5.6,5.6,5.5999,0,5.5658,5.5671,5.5737,5.5769,5.5778,5.5819,5.5844,5.5879,5.5888,5.5936,5.5947,5.596,5.6001,5.6006,5.6052,5.6053,5.6116,5.6111,5.6108,5.6106,5.6145,5.614,5.6274,5.6291,5.618,5.6181,5.6182,0,5.5716,5.5757,5.5794,5.5821,5.5839,5.5881,5.5907,5.5912,5.5938,5.5974,5.6003,5.6044,5.6076,5.6141,5.6153,5.6188,5.6182,5.6226,5.6186,5.6185,5.6179,5.6176,5.6179,5.6233,5.6234,5.6235,5.6236,0,5.5817,5.5822,5.5861,5.5903,5.5935,5.5967,5.5997,5.6018,5.6026,5.6056,5.61,5.6125,5.6174,5.6213,5.6248,5.6261,5.6249,5.6249,5.626,5.6259,5.6255,5.6256,5.6126,5.6245,5.6244,5.6244,5.6243,5.6243,5.5887,5.5923,5.5955,5.5999,5.6023,5.6052,5.6086,5.61,5.6138,5.618,5.618,5.6226,5.6252,5.6299,5.6315,5.6349,5.6334,5.635,5.6353,5.6357,5.636,5.6252,5.6356,5.6356,5.6355,5.6355,5.6355,0,5.5985,5.6006,5.6047,5.6091,5.6125,5.6115,5.6148,5.6176,5.6218,5.6245,5.6278,5.6326,5.6365,5.6381,5.6417,5.6442,5.6437,5.6451,5.6447,5.645,5.6372,5.6359,5.6454,5.6454,5.6454,5.6454,5.6454,5.6454,5.604,5.61,5.6109,5.6179,5.6199,5.6247,5.6266,5.6292,5.6313,5.6369,5.6402,5.6414,5.6435,5.6474,5.6507,5.6511,5.6523,5.6539,5.654,5.6466,5.6456,5.6446,5.6433,5.6543,5.6543,5.6615,5.6615,5.6616]}]]